Station 45012 (LLNR 2655) - EAST Lake Ontario - 20NM North Northeast of Rochester, NY Image indicating link to RSS feed of recent meteorological observations for station 45012


Conditions at 45012 as of
(1:30 am EDT)
0530 GMT on 05/30/2024:
     

Click on the graph icon in the table below to see a time series plot of the last five days of that observation.

5-day plot - Wind Direction Wind Direction (WDIR): NE ( 40 deg true )
5-day plot - Wind Speed Wind Speed (WSPD): 11.7 kts
5-day plot - Wind Gust Wind Gust (GST): 13.6 kts
5-day plot - Atmospheric Pressure Atmospheric Pressure (PRES):30.05 in
5-day plot - Air Temperature Air Temperature (ATMP): 56.5 °F
5-day plot - Water Temperature Water Temperature (WTMP): 56.8 °F
5-day plot - Dew Point Dew Point (DEWP): 47.7 °F
5-day plot - Wind Speed at 10 Meters Wind Speed at 10 meters (WSPD10M): 11.7 kts
5-day plot - Wind Speed at 20 Meters Wind Speed at 20 meters (WSPD20M): 11.7 kts
5-day plot -  Wind Speed, Wind Gust and Atmospheric Pressure Combined plot of Wind Speed, Gust, and Air Pressure
Supplemental Measurements
Highest 1-minute Wind Speed
Time (EDT)5-day plot - 1-Minute Wind Speed WSPD 5-day plot - 1-Minute Wind Direction WDIR
1:29 am 11.7 kts-
Previous observations
TIME
(EDT)
5-day plot - Wind Direction
WDIR
 
5-day plot - Wind Speed
WSPD
kts
5-day plot - Wind Gust
GST
kts
5-day plot - Wave Height
WVHT
ft
5-day plot - Dominant Wave Period
DPD
sec
5-day plot - Average Wave Period
APD
sec
5-day plot - Mean Wave Direction
MWD
 
5-day plot - Atmospheric Pressure
PRES
in
5-day plot - Pressure Tendency
PTDY
in
5-day plot - Air Temperature
ATMP
°F
5-day plot - Water Temperature
WTMP
°F
5-day plot - Dew Point
DEWP
°F
5-day plot - Salinity
SAL
psu
5-day plot - Visibility
VIS
nmi
5-day plot - Tide (above MLLW)
TIDE
ft
2024-05-30 01:20 am NE 11.7 13.6 0.3-3.5-30.05- 56.3 57.0 49.1---
2024-05-30 01:10 am NE 9.7 11.7 0.3-3.5-30.05- 56.1 57.0 51.6---
2024-05-30 01:00 am NE 7.8 9.7----30.05+0.03 56.1 56.8 52.2---
2024-05-30 12:50 am NE 7.8 9.7 0.3-3.5-30.05- 56.3 56.8 52.5---
2024-05-30 12:40 am NE 5.8 7.8----30.05- 56.1 56.8 54.0---
2024-05-30 12:30 am NE 5.8 5.8----30.05- 56.1 56.8 54.0---
2024-05-30 12:20 amENE 3.9 5.8 0.0-2.6-30.04- 56.1 56.7 54.1---
2024-05-30 12:10 amENE 3.9 5.8 0.0-2.6-30.04- 55.9 56.7 54.3---
2024-05-30 12:00 amENE 3.9 5.8----30.03+0.01 55.9 56.5 54.5---
2024-05-29 11:50 pm NE 3.9 3.9 0.3-3.1-30.03- 55.8 56.5 54.3---
2024-05-29 11:40 pm NE 3.9 3.9----30.03- 55.9 56.5 53.8---
2024-05-29 11:30 pmNNE 1.9 3.9----30.03- 55.9 56.7 53.2---
2024-05-29 11:20 pm- 0.0 1.9 0.3-3.2-30.03- 56.3 56.7 52.0---
2024-05-29 11:10 pm W 1.9 1.9 0.3-3.2-30.02- 56.5 56.7 51.8---
2024-05-29 11:00 pmWSW 1.9 1.9----30.02+0.01 56.1 56.5 51.8---
2024-05-29 10:50 pm- 0.0 1.9 0.3-2.9-30.02- 56.1 56.5 53.1---
2024-05-29 10:40 pm SE 1.9 1.9----30.03- 56.1 56.5 53.2---
2024-05-29 10:30 pm- 0.0 1.9----30.03- 56.1 56.5 53.2---
2024-05-29 10:20 pm S 1.9 1.9 0.3-2.5-30.03- 56.1 56.7 53.6---
2024-05-29 10:10 pmSSW 1.9 1.9----30.02- 56.3 56.7 53.2---
2024-05-29 10:00 pm SW 1.9 1.9----30.02+0.01 56.5 56.7 52.7---
2024-05-29 09:50 pm S 1.9 1.9 0.3-2.6-30.02- 56.3 56.5 53.1---
2024-05-29 09:40 pm S 1.9 1.9----30.02- 56.3 56.7 52.3---
2024-05-29 09:30 pmWSW 1.9 1.9----30.02- 56.7 56.7 52.2---
2024-05-29 09:20 pmSSW 1.9 1.9 0.3-2.7-30.02- 56.5 56.8 52.5---
2024-05-29 09:10 pmSSW 1.9 1.9 0.3-2.7-30.02- 56.3 56.8 53.4---
2024-05-29 09:00 pmSSW 1.9 3.9----30.02+0.01 56.5 56.8 53.2---
2024-05-29 08:50 pm S 3.9 3.9 0.3-2.8-30.02- 56.7 56.8 53.1---
2024-05-29 08:40 pm S 3.9 3.9----30.02- 56.8 56.8 52.7---
2024-05-29 08:30 pm S 3.9 3.9----30.02- 57.2 56.8 52.3---
2024-05-29 08:20 pmSSE 3.9 3.9 0.3-2.7-30.02- 57.0 56.8 52.5---
2024-05-29 08:10 pmSSW 3.9 3.9----30.01- 57.2 57.0 52.5---
2024-05-29 08:00 pmSSW 3.9 3.9----30.02+0.02 57.2 57.0 51.6---
2024-05-29 07:50 pm S 3.9 3.9 0.3-2.7-30.02- 57.4- 51.8---
2024-05-29 07:40 pm S 3.9 3.9----30.02- 57.4 57.0 51.1---
2024-05-29 07:30 pmSSW 3.9 3.9----30.02- 57.4 56.8 50.9---
2024-05-29 07:20 pm SW 3.9 5.8 0.3-2.7-30.01- 57.6 57.0 50.4---
2024-05-29 07:10 pm SW 3.9 5.8 0.3-2.7-30.01- 57.6 57.2 50.2---
2024-05-29 07:00 pmSSW 3.9 5.8----30.01+0.01 57.6 57.4 50.2---
2024-05-29 06:50 pmSSW 5.8 5.8 0.3-2.7-30.01- 57.4 57.2 49.8---
2024-05-29 06:40 pmSSW 3.9 5.8----30.01- 57.4 57.2 49.8---
2024-05-29 06:30 pmSSW 3.9 5.8----30.01- 57.6 57.4 49.5---
2024-05-29 06:20 pmSSW 3.9 5.8 0.3-2.7-30.01- 57.6 57.4 49.6---
2024-05-29 06:10 pmSSW 3.9 5.8----30.01- 57.6 57.2 49.6---
2024-05-29 06:00 pmSSW 3.9 5.8----30.01+0.00 57.4 57.4 49.3---
2024-05-29 05:50 pm S 3.9 5.8 0.3-3.0-30.01- 57.2 57.4 48.9---
2024-05-29 05:40 pm S 3.9 5.8----30.01- 57.4 57.4 49.1---
2024-05-29 05:30 pm S 3.9 5.8----30.01- 57.2 57.4 48.7---
2024-05-29 05:20 pm S 3.9 3.9 0.3-3.1-30.00- 57.2 57.2 48.4---
2024-05-29 05:10 pm S 3.9 3.9 0.3-3.1-30.00- 57.2 57.2 48.6---
2024-05-29 05:00 pm S 3.9 3.9----30.00-0.01 57.2 57.2 48.2---
2024-05-29 04:50 pm S 3.9 3.9 0.3-2.8-30.00- 57.2 57.4 47.8---
2024-05-29 04:40 pmSSW 3.9 5.8----30.00- 57.2 57.2 48.6---
2024-05-29 04:30 pm S 3.9 5.8----30.00- 57.0 57.4 47.8---
2024-05-29 04:20 pm S 3.9 5.8 0.3-2.8-30.00- 57.0 57.4 48.2---
2024-05-29 04:10 pm S 5.8 5.8----30.00- 57.0 57.6 47.7---
2024-05-29 04:00 pm S 5.8 5.8----30.00-0.02 57.0 57.6 47.7---
2024-05-29 03:50 pm S 5.8 5.8 0.3-2.8-30.00- 57.0 57.4 48.2---
2024-05-29 03:40 pm S 5.8 7.8----30.00- 57.0 57.0 48.0---
2024-05-29 03:30 pm S 5.8 5.8----30.00- 56.8 57.2 47.7---
2024-05-29 03:20 pm S 5.8 5.8 0.3-2.8-30.00- 56.8 57.0 48.0---
2024-05-29 03:10 pm S 5.8 5.8 0.3-2.8-30.00- 56.7 56.8 47.8---
2024-05-29 03:00 pm S 5.8 5.8----30.01-0.02 56.7 56.8 48.0---
2024-05-29 02:50 pm S 5.8 7.8 0.7-2.8-30.01- 56.7 56.3 47.7---
2024-05-29 02:40 pm S 5.8 5.8----30.01- 56.5 56.3 47.7---
2024-05-29 02:30 pmSSW 3.9 5.8----30.01- 56.5 56.5 47.7---
2024-05-29 02:20 pm S 3.9 5.8 0.7-2.8-30.01- 56.1 56.5 47.3---
2024-05-29 02:10 pm S 3.9 5.8 0.7-2.8-30.01- 56.1 56.5 47.5---
2024-05-29 02:00 pm S 1.9 3.9----30.01-0.01 56.3 56.3 47.3---
2024-05-29 01:50 pm S 1.9 3.9 0.7-2.9-30.01- 56.1 56.3 46.9---
2024-05-29 01:40 pmSSW 3.9 5.8----30.01- 55.8 56.5 47.3---
2024-05-29 01:30 pm SW 1.9 3.9----30.01- 55.8 56.5 47.1---
2024-05-29 01:20 pmWSW 1.9 1.9 0.7-2.9-30.01- 55.8 56.3 46.9---
2024-05-29 01:10 pm SW 1.9 1.9 0.7-2.9-30.01- 55.6 56.5 46.8---
2024-05-29 01:00 pmWSW 1.9 3.9----30.02+0.01 55.6 56.3 46.4---
2024-05-29 12:50 pm W 1.9 3.9 0.7-2.8-30.02- 55.6 56.3 46.4---
2024-05-29 12:40 pmWSW 1.9 3.9----30.03- 55.6 56.3 46.0---
2024-05-29 12:30 pm- 0.0 1.9----30.03- 55.6 56.3 46.0---
2024-05-29 12:20 pm- 0.0 1.9 0.7-2.9-30.03- 55.6 56.1 45.9---
2024-05-29 12:10 pm- 0.0 1.9 0.7-2.9-30.03- 55.2 56.3 45.9---
2024-05-29 12:00 pm N 1.9 1.9----30.03+0.02 55.0 56.3 46.0---
2024-05-29 11:50 amNNE 1.9 3.9 0.7-2.8-30.03- 55.0 56.3 45.9---
2024-05-29 11:40 amNNE 1.9 3.9----30.03- 54.9 56.3 45.9---
2024-05-29 11:30 amNNE 1.9 3.9----30.03- 54.9 56.3 45.5---
2024-05-29 11:20 am NE 1.9 3.9 0.7-2.6-30.02- 54.9 56.1 45.9---
2024-05-29 11:10 am NE 3.9 3.9 0.7-2.6-30.03- 54.7 56.3 45.7---
2024-05-29 11:00 amNNE 3.9 3.9----30.03+0.03 54.7 56.1 45.7---
2024-05-29 10:50 amNNE 5.8 7.8 0.7-2.6-30.02- 54.7 56.1 45.9---
2024-05-29 10:40 amNNE 5.8 7.8----30.02- 54.7 55.9 45.9---
2024-05-29 10:30 amNNE 5.8 7.8----30.01- 54.9 55.9 45.5---
2024-05-29 10:20 amNNE 5.8 7.8 0.7-2.7-30.01- 54.9 55.8 45.0---
2024-05-29 10:10 amNNE 7.8 9.7 0.7-2.7-30.01- 54.9 55.9 44.6---
2024-05-29 10:00 amNNE 7.8 9.7----30.01+0.04 55.0 55.8 45.0---
2024-05-29 09:50 amNNE 5.8 7.8 0.7-2.7-30.01- 55.0 55.8 45.3---
2024-05-29 09:40 amNNE 5.8 7.8----30.01- 55.0 55.6 44.6---
2024-05-29 09:30 am N 7.8 7.8----30.01- 55.0 55.6 44.4---
2024-05-29 09:20 amNNE 7.8 9.7 1.0 32.9 W30.01- 54.9 55.6 45.3---
2024-05-29 09:10 amNNE 7.8 9.7 1.0-2.9 W30.01- 54.9 55.4 47.1---
2024-05-29 09:00 amNNE 5.8 7.8----30.00+0.04 55.0 55.4 47.8---
2024-05-29 08:50 amNNE 5.8 7.8 1.0 42.9 W30.00- 54.9 55.4 48.9---
2024-05-29 08:40 amNNE 5.8 7.8 1.0-2.9 W30.00- 55.0 55.4 48.4---
2024-05-29 08:30 amNNE 5.8 7.8----30.00- 55.0 55.2 48.9---
2024-05-29 08:20 amNNE 5.8 7.8 1.0 43.0 W30.00- 55.0 55.2 49.8---
2024-05-29 08:10 amNNE 5.8 7.8 1.0-3.0 W30.00- 55.2 55.2 49.6---
2024-05-29 08:00 amNNE 5.8 7.8----29.99+0.05 55.4 55.2 49.6---
2024-05-29 07:50 am NE 5.8 7.8 1.0 43.1 W29.99- 55.6 55.0 48.2---
2024-05-29 07:40 am NE 7.8 9.7----29.99- 55.6 55.0 47.7---
2024-05-29 07:30 am NE 5.8 7.8----29.98- 55.6 55.0 49.3---
2024-05-29 07:20 amNNE 7.8 9.7 1.0 43.3 W29.98- 55.6 55.0 49.6---
2024-05-29 07:10 am NE 7.8 9.7 1.0-3.3 W29.97- 55.8 54.9 49.6---
2024-05-29 07:00 amNNE 7.8 9.7----29.97+0.05 55.9 54.9 49.1---
2024-05-29 06:50 amNNE 7.8 9.7 1.3 43.4 W29.97- 55.9 54.9 48.9---
2024-05-29 06:40 amNNE 7.8 9.7----29.97- 55.9 54.9 48.4---
2024-05-29 06:30 amNNE 7.8 9.7----29.97- 55.9 54.9 48.7---
2024-05-29 06:20 am NE 7.8 9.7 1.3 43.4 W29.96- 56.1 54.9 48.9---
2024-05-29 06:10 am NE 7.8 9.7 1.3-3.4 W29.96- 56.1 54.7 49.1---
2024-05-29 06:00 amNNE 7.8 9.7----29.96+0.05 56.5 54.7 49.1---
2024-05-29 05:50 am NE 5.8 7.8 1.0 43.3 W29.96- 56.1 54.7 51.3---
2024-05-29 05:40 amNNE 5.8 7.8----29.95- 55.9 54.5 53.1---
2024-05-29 05:30 am N 3.9 5.8----29.95- 55.6 54.5 53.8---
2024-05-29 05:20 am N 3.9 5.8 1.0 43.3 W29.95- 55.6 54.5 54.3---
2024-05-29 05:10 amNNW 3.9 3.9 1.0-3.3 W29.95- 55.8 54.5 54.3---
2024-05-29 05:00 am NW 3.9 5.8----29.95+0.04 55.6 54.5 54.5---
2024-05-29 04:50 amNNW 3.9 5.8 1.0 43.2WSW29.94- 55.8 54.5 54.3---
2024-05-29 04:40 am NW 5.8 5.8----29.93- 55.9 54.5 54.5---
2024-05-29 04:30 amWNW 3.9 7.8----29.93- 55.9 54.7 54.5---
2024-05-29 04:20 amWNW 5.8 7.8 1.0 43.3 W29.93- 55.8 54.7 55.0---
2024-05-29 04:10 amWNW 5.8 7.8 1.0-3.3 W29.93- 55.8 54.7 54.9---
2024-05-29 04:00 amWNW 5.8 7.8----29.92+0.02 55.8 54.7 55.0---
2024-05-29 03:50 amWNW 7.8 7.8 1.0 43.2WSW29.92- 55.9 54.7 55.2---
2024-05-29 03:40 amWNW 7.8 9.7----29.92- 56.1 54.7 55.4---
2024-05-29 03:30 amWNW 7.8 9.7----29.92- 56.1 54.7 55.4---
2024-05-29 03:20 am W 7.8 9.7 1.0 43.2WSW29.92- 56.1- 55.4---
2024-05-29 03:10 am W 7.8 9.7 1.0-3.2WSW29.91- 56.1 54.7 55.4---
2024-05-29 03:00 am W 7.8 9.7----29.91+0.01 56.1 54.7 55.2---
2024-05-29 02:50 am W 7.8 9.7 1.3 43.3 W29.91- 56.3 54.7 55.2---
2024-05-29 02:40 am W 7.8 9.7----29.91- 56.3 54.7 55.2---
2024-05-29 02:30 am W 7.8 9.7----29.91- 56.5 54.7 55.2---
2024-05-29 02:20 am W 7.8 11.7 1.3 43.2 W29.91- 56.5 54.7 55.2---
2024-05-29 02:10 am W 7.8 9.7----29.91- 56.1 54.7 55.2---
2024-05-29 02:00 amWSW 7.8 9.7----29.91+0.02 56.1 54.7 55.4---
2024-05-29 01:50 am W 7.8 9.7 1.3 43.3 W29.91- 56.1 54.7 55.4---

Detailed Wave Summary
for 45012 as of (1:10 am EDT)
0510 GMT on 05/30/2024:

These wave data are displayed in rounded times.

     

Click on the graph icon in the table below to see a time series plot of the last five days of that observation.

5-day plot - Significant Wave Height Significant Wave Height (WVHT): 0.3 ft
5-day plot - Average Wave Period Average Wave Period (APD): 3.5 sec
Previous observations
TIME
(EDT)
5-day plot - Wave Height
WVHT
ft
5-day plot - Swell Height
SwH
ft
5-day plot - Swell Period
SwP
sec
5-day plot - Swell Direction
SwD
 
5-day plot - Wind Wave Height
WWH
ft
5-day plot - Wind Wave Period
WWP
sec
5-day plot - Wind Wave Direction
WWD
 
5-day plot - Wave Steepness
STEEPNESS
 
5-day plot - Average Wave Period
APD
sec
2024-05-30 12:40 am 0.3------ N/A 3.5
2024-05-30 12:10 am 0.0------ N/A 2.6
2024-05-29 11:40 pm 0.3------ N/A 3.1
2024-05-29 11:10 pm 0.3------ N/A 3.2
2024-05-29 10:40 pm 0.3------ N/A 2.9
2024-05-29 10:10 pm 0.3------ N/A 2.5
2024-05-29 09:40 pm 0.3------ N/A 2.6
2024-05-29 09:10 pm 0.3------ N/A 2.7
2024-05-29 08:40 pm 0.3------ N/A 2.8
2024-05-29 08:10 pm 0.3------ N/A 2.7
2024-05-29 07:40 pm 0.3------ N/A 2.7
2024-05-29 07:10 pm 0.3------ N/A 2.7
2024-05-29 06:40 pm 0.3------ N/A 2.7
2024-05-29 06:10 pm 0.3------ N/A 2.7
2024-05-29 05:40 pm 0.3------ N/A 3.0
2024-05-29 05:10 pm 0.3------ N/A 3.1
2024-05-29 04:40 pm 0.3------ N/A 2.8
2024-05-29 04:10 pm 0.3------ N/A 2.8
2024-05-29 03:40 pm 0.3------ N/A 2.8
2024-05-29 03:10 pm 0.3------ N/A 2.8
2024-05-29 02:40 pm 0.7------ N/A 2.8
2024-05-29 02:10 pm 0.7------ N/A 2.8
2024-05-29 01:40 pm 0.7------ N/A 2.9
2024-05-29 01:10 pm 0.7------ N/A 2.9
2024-05-29 12:40 pm 0.7------ N/A 2.8
2024-05-29 12:10 pm 0.7------ N/A 2.9
2024-05-29 11:40 am 0.7------ N/A 2.8
2024-05-29 11:10 am 0.7------ N/A 2.6
2024-05-29 10:40 am 0.7------ N/A 2.6
2024-05-29 10:10 am 0.7------ N/A 2.7
2024-05-29 09:40 am 0.7------ N/A 2.7
2024-05-29 09:10 am 1.0 0.0 4.8ENE 1.0 3.4 W N/A 2.9
2024-05-29 08:40 am 1.0 0.0 5.0NNE 1.0 3.6 W N/A 2.9
2024-05-29 08:10 am 1.0 0.3 5.9NNW 1.0 3.7 W N/A 3.0
2024-05-29 07:40 am 1.0 0.0-- 1.0 3.8 W N/A 3.1
2024-05-29 07:10 am 1.0 0.3 6.2WSW 1.0 3.8 W N/A 3.3
2024-05-29 06:40 am 1.3 0.0-- 1.3 4.0 W N/A 3.4
2024-05-29 06:10 am 1.3 0.7 4.2 W 1.0 3.7 W N/A 3.4
2024-05-29 05:40 am 1.0 0.0-- 1.0 3.8 W N/A 3.3
2024-05-29 05:10 am 1.0 0.0-- 1.0 3.6 W N/A 3.3
2024-05-29 04:40 am 1.0 0.0-- 1.0 3.8 WSW N/A 3.2
2024-05-29 04:10 am 1.0 0.3 5.3WSW 1.0 3.8 W N/A 3.3
2024-05-29 03:40 am 1.0 0.0-- 1.0 3.7 WSW N/A 3.2
2024-05-29 03:10 am 1.0 0.3 7.7 W 1.0 3.8 WSW N/A 3.2
2024-05-29 02:40 am 1.3 0.7 6.7 SW 1.0 4.0 W N/A 3.3
2024-05-29 02:10 am 1.3 0.3 6.2 SW 1.3 4.2 W N/A 3.2

Plot of wave energy versus frequency (and period)